Date,TemperatureHighF,TemperatureAvgF,TemperatureLowF,DewpointHighF,DewpointAvgF,DewpointLowF,HumidityHigh,HumidityAvg,HumidityLow,PressureMaxIn,PressureMinIn,WindSpeedMaxMPH,WindSpeedAvgMPH,GustSpeedMaxMPH,PrecipitationSumIn
2013-3-13,69,60,49,53,49,45,86,68,56,30.37,30.22,1,0,3,0.00
2013-3-14,66,55,49,52,46,44,87,75,50,30.34,30.18,4,0,4,0.00
2013-3-15,67,57,50,53,48,45,83,73,52,30.37,30.29,4,0,9,0.00
2013-3-16,56,49,39,49,43,35,86,81,70,30.31,30.15,6,0,9,0.10
2013-3-17,52,44,38,39,36,33,87,74,58,30.44,30.28,6,1,7,0.02
2013-3-18,56,45,38,42,37,33,85,73,55,30.43,30.32,4,0,8,0.00
2013-3-19,57,45,38,42,38,34,88,79,56,30.32,29.83,3,0,4,0.48
2013-3-20,55,49,39,49,43,33,89,81,67,30.29,29.67,8,2,10,0.87
2013-3-21,51,42,38,41,36,31,87,77,57,30.45,30.30,8,1,8,0.04
2013-3-22,47,40,35,41,34,31,87,81,65,30.55,30.44,9,0,10,0.08
2013-3-23,53,42,35,40,34,29,89,74,49,30.55,30.42,4,0,6,0.02
2013-3-24,61,46,37,42,35,31,85,67,45,30.43,30.23,2,0,3,0.00
2013-3-25,65,49,40,42,36,30,74,63,42,30.24,30.05,5,0,6,0.00
2013-3-26,58,50,41,48,43,37,86,77,66,30.17,30.10,1,0,3,0.00
2013-3-27,66,53,42,49,45,38,88,74,54,30.13,30.03,4,0,4,0.00
2013-3-28,68,56,47,53,47,43,88,73,50,30.27,30.13,3,0,8,0.00
2013-3-29,69,58,50,52,48,45,85,70,48,30.35,30.26,4,1,7,0.00
2013-3-30,76,60,47,54,47,-100,85,67,46,30.33,30.09,8,2,8,0.00
2013-3-31,78,62,49,55,48,43,79,63,41,30.16,30.00,4,0,6,0.00
2013-4-1,69,58,51,55,50,46,84,73,60,30.32,30.13,3,0,6,0.00
2013-4-2,64,55,52,51,48,46,83,77,59,30.37,30.26,6,1,6,0.00
2013-4-3,67,56,44,54,48,40,88,77,60,30.33,30.05,5,0,5,0.00
2013-4-4,64,57,53,58,52,48,87,82,75,30.05,29.85,4,0,5,0.22
2013-4-5,65,55,51,53,49,47,88,81,61,30.08,29.96,4,1,8,0.26
2013-4-6,63,52,47,50,46,42,89,81,60,30.14,29.88,4,0,6,0.55
2013-4-7,58,49,43,48,44,38,89,81,62,30.10,29.67,5,1,8,0.46
2013-4-8,58,48,42,48,42,38,87,78,63,30.45,30.10,4,0,7,0.02
2013-4-9,61,51,40,49,43,36,88,76,61,30.52,30.39,1,0,2,0.02
2013-4-10,62,54,48,55,45,39,84,72,58,30.49,30.24,14,2,14,0.10
2013-4-11,61,49,40,46,41,36,87,72,58,30.50,30.34,5,1,5,0.02
2013-4-12,59,47,37,46,40,33,86,76,61,30.34,30.00,3,0,3,0.02
2013-4-13,59,46,38,43,38,34,88,74,54,30.24,30.07,4,0,4,0.12
2013-4-14,58,46,41,46,39,35,87,77,58,30.23,30.07,9,1,9,0.16
2013-4-15,57,47,38,42,38,34,87,72,48,30.31,30.09,8,1,16,0.06
2013-4-16,61,47,38,44,39,34,89,74,42,30.54,30.31,15,1,16,0.08
2013-4-17,64,49,37,48,40,33,88,72,47,30.65,30.54,6,0,7,0.02
2013-4-18,65,54,46,49,44,39,83,69,53,30.63,30.45,6,0,6,0.04
2013-4-19,60,54,50,54,48,44,88,81,66,30.45,30.29,4,0,4,0.32
2013-4-20,64,54,48,48,45,41,87,72,54,30.48,30.40,4,0,9,0.02
2013-4-21,60,51,45,49,44,40,87,78,66,30.46,30.39,4,0,4,0.04
2013-4-22,67,50,40,46,39,34,89,71,36,30.59,30.46,6,1,8,0.04
2013-4-23,68,54,39,43,35,31,77,51,27,30.53,30.28,17,3,17,0.00
2013-4-24,74,58,43,45,37,32,70,48,30,30.41,30.14,15,2,15,0.00
2013-4-25,75,61,47,49,43,36,72,52,36,30.29,30.15,6,1,8,0.00
2013-4-26,76,60,47,54,46,38,87,62,33,30.39,30.27,6,1,6,0.00
2013-4-27,76,58,47,48,43,37,77,59,33,30.41,30.32,11,1,17,0.00
2013-4-28,72,60,53,51,46,40,80,62,38,30.39,30.20,6,0,6,0.00
2013-4-29,58,53,44,47,40,32,85,63,39,30.37,30.18,8,2,14,0.14
2013-4-30,58,48,40,44,36,32,77,64,46,30.59,30.37,6,1,8,0.02
2013-5-1,69,52,38,43,37,32,82,60,36,30.68,30.57,8,2,9,0.02
2013-5-2,78,62,48,46,40,34,64,45,28,30.59,30.35,11,3,14,0.00
2013-5-3,76,64,51,50,42,36,61,46,33,30.43,30.24,14,3,16,0.00
2013-5-4,82,67,54,51,44,36,69,46,25,30.28,30.02,7,1,8,0.00
2013-5-5,84,68,56,47,43,36,62,42,27,30.03,29.82,3,0,8,0.00
2013-5-6,82,67,55,56,49,43,69,53,37,30.02,29.85,4,1,6,0.00
2013-5-7,75,64,52,56,51,47,83,65,48,30.15,29.97,4,1,7,0.00
2013-5-8,69,60,53,55,51,47,83,74,60,30.29,30.15,6,1,6,0.00
2013-5-9,77,62,51,56,52,47,86,70,46,30.34,30.18,4,1,8,0.00
2013-5-10,82,67,54,59,52,-100,83,64,41,30.33,30.20,4,1,7,0.00
2013-5-11,86,68,57,65,54,-100,75,63,43,30.31,30.11,3,0,5,0.00
2013-5-12,75,65,59,62,57,54,87,75,59,30.24,30.16,1,0,3,0.16
2013-5-13,72,61,53,60,53,43,88,74,54,30.34,30.16,4,0,9,0.18
2013-5-14,67,57,47,46,43,41,85,63,44,30.36,30.22,4,1,6,0.00
2013-5-15,65,56,51,54,48,43,83,74,62,30.24,30.15,1,0,2,0.04
2013-5-16,68,54,53,59,36,-100,87,82,66,30.15,30.06,2,0,2,0.18
2013-5-17,69,56,49,54,45,-100,88,78,54,30.22,30.11,6,0,6,0.02
2013-5-18,63,56,52,54,51,47,87,82,71,30.41,30.22,57,2,57,0.28
2013-5-19,67,58,53,51,49,45,88,72,50,30.54,30.40,5,1,8,0.04
2013-5-20,74,59,47,54,48,42,85,69,45,30.47,30.02,5,1,5,0.00
2013-5-21,60,51,45,49,46,42,88,82,67,30.11,29.95,3,0,3,0.42
2013-5-22,51,47,44,48,43,40,89,88,87,30.12,30.08,2,0,3,0.65
2013-5-23,57,50,46,53,46,43,89,88,82,30.17,30.10,2,0,3,1.18
2013-5-24,61,54,48,54,49,45,89,85,75,30.22,30.12,3,0,3,0.59
2013-5-25,68,56,49,55,50,46,89,79,53,30.21,30.06,4,0,6,0.06
2013-5-26,69,60,54,57,52,47,88,75,56,30.14,30.06,3,0,3,0.10
2013-5-27,68,58,52,61,52,47,88,81,65,30.12,29.86,4,0,4,0.61
2013-5-28,69,59,53,56,51,46,87,75,57,30.06,29.90,1,0,3,0.06
2013-5-29,68,58,52,56,51,45,88,76,57,30.18,29.77,4,0,4,0.48
2013-5-30,65,57,50,54,49,45,86,76,63,30.37,30.18,4,0,6,0.02
2013-5-31,72,60,51,50,48,46,86,68,45,30.47,30.34,6,1,8,0.02
2013-6-1,77,62,50,56,51,44,84,67,48,30.36,30.12,6,0,9,0.00
2013-6-2,80,63,56,55,51,48,80,66,43,30.22,30.15,7,2,11,0.00
2013-6-3,80,61,51,55,50,46,84,69,43,30.27,30.14,8,2,10,0.00
2013-6-4,89,66,51,58,52,45,81,62,34,30.24,30.07,6,2,9,0.00
2013-6-5,81,69,58,61,55,48,72,61,47,30.21,30.08,10,2,11,0.00
2013-6-6,76,64,56,59,53,47,81,69,45,30.19,30.11,6,2,7,0.00
2013-6-7,79,64,54,59,50,45,76,62,41,30.27,30.16,7,1,16,0.00
2013-6-8,81,63,51,54,50,45,82,64,40,30.32,30.16,7,2,9,0.00
2013-6-9,81,61,52,54,49,43,80,65,39,30.26,30.11,11,2,14,0.00
2013-6-10,72,58,49,50,46,42,79,64,46,30.16,30.03,8,2,11,0.00
2013-6-11,74,60,53,54,47,43,74,63,43,30.28,30.12,4,0,4,0.00
2013-6-12,68,57,53,54,49,45,87,76,60,30.31,30.28,3,0,4,0.30
2013-6-13,65,57,51,59,52,48,88,84,71,30.41,30.30,1,0,1,0.40
2013-6-14,71,60,52,54,51,47,87,71,52,30.41,30.13,10,1,10,0.02
2013-6-15,84,65,52,60,53,48,86,68,40,30.12,30.01,6,1,6,0.00
2013-6-16,76,65,55,59,55,49,82,69,56,30.22,30.11,6,1,6,0.00
2013-6-17,77,65,55,59,53,49,83,67,46,30.22,30.04,4,0,9,0.00
2013-6-18,74,62,55,55,50,47,80,67,49,30.15,30.06,3,0,6,0.00
2013-6-19,71,61,54,59,51,47,80,70,54,30.23,30.09,3,0,3,0.06
2013-6-20,70,57,53,58,51,49,87,81,58,30.24,30.18,1,0,1,0.18
2013-6-21,70,69,68,54,53,52,57,56,54,30.27,30.25,2,1,2,0.00
2013-6-22,76,67,55,58,54,51,86,66,44,30.22,29.95,1,0,3,0.00
2013-6-23,71,66,60,65,59,54,86,77,60,29.95,29.76,1,0,1,0.22
2013-6-24,72,62,56,60,56,52,88,81,62,29.85,29.76,1,0,1,0.26
2013-6-25,73,63,57,62,56,53,88,80,65,30.00,29.81,3,0,3,0.12
2013-6-26,75,65,59,65,58,55,87,79,65,30.17,29.99,1,0,3,0.12
2013-6-27,84,69,62,65,60,57,85,75,53,30.27,30.14,4,0,6,0.04
2013-6-28,89,74,63,71,63,59,87,72,43,30.26,30.13,5,0,9,0.00
2013-6-29,92,76,64,66,61,55,76,61,41,30.22,30.08,9,1,9,0.00
2013-6-30,95,78,65,70,64,59,83,64,43,30.10,29.93,4,1,9,0.00
2013-7-1,87,72,67,68,62,60,78,70,54,30.11,30.01,6,1,6,0.00
2013-7-2,87,70,64,62,59,56,80,69,44,30.21,30.12,5,2,9,0.00
2013-7-3,81,67,59,56,53,50,75,61,40,30.29,30.14,8,2,11,0.00
2013-7-4,77,64,54,55,52,48,81,66,47,30.29,30.15,9,2,11,0.00
2013-7-5,80,64,55,58,52,48,79,66,43,30.19,30.05,6,1,7,0.00
2013-7-6,75,62,54,59,53,49,83,73,57,30.12,29.98,3,0,5,0.00
2013-7-7,77,65,56,62,56,51,84,72,56,30.12,30.00,4,1,9,0.00
2013-7-8,84,65,55,61,55,50,83,71,45,30.23,30.10,7,1,11,0.00
2013-7-9,91,72,61,64,59,56,84,65,40,30.21,30.08,6,2,9,0.00
2013-7-10,79,66,57,59,52,-100,80,64,46,30.20,30.05,9,2,13,0.00
2013-7-11,75,62,53,53,49,45,79,62,44,30.23,30.07,7,2,9,0.00
2013-7-12,76,61,50,55,49,43,80,65,46,30.23,30.12,6,1,10,0.00
2013-7-13,84,65,53,54,49,46,78,59,33,30.30,30.14,11,2,13,0.00
2013-7-14,83,67,58,57,51,46,72,58,37,30.21,30.07,8,2,8,0.00
2013-7-15,88,68,56,58,50,45,77,55,32,30.14,29.92,9,2,14,0.00
2013-7-16,89,73,64,61,54,48,63,52,36,30.08,29.88,3,1,59,0.00
2013-7-17,80,67,61,59,56,53,76,66,49,30.29,30.08,4,1,7,0.00
2013-7-18,85,65,58,64,56,53,83,72,49,30.34,30.17,6,2,18,0.00
2013-7-19,84,67,57,64,57,52,83,71,52,30.28,30.10,8,2,13,0.00
2013-7-20,85,65,57,64,55,-100,86,73,49,30.21,30.04,8,2,8,0.00
2013-7-21,83,66,57,63,56,52,84,73,50,30.13,30.00,8,2,8,0.00
2013-7-22,80,65,58,62,56,53,84,73,50,30.18,30.06,8,2,8,0.00
2013-7-23,88,71,60,65,59,55,86,69,43,30.17,30.03,11,1,11,0.00
2013-7-24,88,70,58,62,57,53,83,66,36,30.18,30.06,6,2,9,0.00
2013-7-25,87,70,58,61,55,50,78,61,38,30.19,30.11,5,1,10,0.00
2013-7-26,86,67,58,59,52,47,75,60,33,30.27,30.15,8,1,11,0.00
2013-7-27,78,66,53,57,51,47,80,61,44,30.33,30.11,7,1,9,0.00
2013-7-28,71,62,52,55,51,46,81,69,56,30.20,30.09,7,1,8,0.00
2013-7-29,77,65,56,59,53,48,77,66,54,30.13,30.04,7,0,7,0.00
2013-7-30,79,68,56,60,56,51,84,68,49,30.27,30.13,6,1,8,0.00
2013-7-31,79,68,59,62,58,53,84,72,57,30.25,30.11,6,1,6,0.00
2013-8-1,70,62,58,60,55,52,83,79,71,30.23,30.16,4,0,6,0.04
2013-8-2,76,65,59,58,55,53,82,71,52,30.28,30.21,4,0,5,0.02
2013-8-3,79,68,59,62,58,54,84,71,53,30.24,30.08,8,1,9,0.00
2013-8-4,86,72,61,65,60,56,85,68,44,30.14,29.99,5,1,6,0.00
2013-8-5,86,70,61,64,59,56,84,70,45,30.13,30.00,7,1,11,0.00
2013-8-6,87,69,58,60,55,51,79,64,33,30.13,30.00,4,1,6,0.00
2013-8-7,86,69,60,62,57,53,82,67,42,30.16,30.04,4,0,4,0.00
2013-8-8,81,69,60,64,58,54,81,69,52,30.17,30.01,6,0,8,0.00
2013-8-9,78,69,60,63,57,52,81,67,55,30.08,29.96,4,1,8,0.00
2013-8-10,80,70,60,66,60,55,85,73,58,30.13,29.99,4,0,5,0.00
2013-8-11,76,67,61,62,58,55,82,74,60,30.20,30.11,7,1,7,0.00
2013-8-12,78,67,60,61,57,54,84,71,51,30.20,30.10,4,0,5,0.00
2013-8-13,83,67,55,60,53,-100,84,65,37,30.24,30.02,4,0,6,0.00
2013-8-14,84,67,59,61,52,-100,82,67,37,30.09,30.02,2,0,3,0.00
2013-8-15,82,68,67,66,51,-100,82,68,59,30.09,30.04,3,0,4,0.00
2013-8-16,86,71,65,70,60,-100,87,73,56,30.15,30.06,4,0,5,0.00
2013-8-17,80,69,60,62,57,-100,80,66,52,30.21,30.12,7,1,9,0.00
2013-8-18,80,69,60,61,58,54,83,69,52,30.26,30.15,6,1,9,0.00
2013-8-19,80,66,60,61,49,-100,84,67,48,30.25,30.15,9,2,9,0.00
2013-8-20,80,66,54,59,52,-100,83,63,41,30.27,30.10,9,2,11,0.00
2013-8-21,87,71,58,60,54,49,74,55,38,30.13,29.95,9,2,11,0.00
2013-8-22,84,74,62,62,57,51,76,56,45,30.03,29.95,4,0,4,0.00
2013-8-23,78,68,62,62,58,56,83,72,54,30.08,29.97,4,0,6,0.02
2013-8-24,76,67,62,62,55,-100,84,68,51,30.04,29.96,6,1,6,0.02
2013-8-25,73,64,58,62,56,52,84,76,64,30.07,30.01,3,0,3,0.08
2013-8-26,81,67,60,63,58,53,86,75,43,30.09,30.00,2,0,4,0.24
2013-8-27,74,64,62,62,59,58,87,83,66,30.09,29.97,3,0,4,0.28
2013-8-28,82,76,69,65,63,61,82,65,53,30.01,29.96,3,0,4,0.02
2013-8-29,80,70,65,70,64,61,87,80,65,30.16,29.95,8,0,8,0.20
2013-8-30,80,71,63,65,61,57,86,72,52,30.26,30.15,4,0,8,0.02
2013-8-31,85,70,59,63,57,-100,87,68,46,30.16,29.92,4,0,4,0.00
2013-9-1,83,70,60,63,57,53,81,64,41,30.03,29.90,6,0,8,0.00
2013-9-2,82,72,64,63,58,55,79,65,48,30.03,29.98,3,0,4,0.00
2013-9-3,79,70,60,64,59,56,86,71,54,30.12,30.02,3,0,4,0.06
2013-9-4,76,68,62,63,60,56,82,74,63,30.18,30.09,3,0,4,0.02
2013-9-5,69,64,60,62,59,56,87,83,76,30.15,30.08,4,0,6,0.42
2013-9-6,71,63,59,64,58,55,88,85,77,30.24,30.13,2,0,4,1.30
2013-9-7,77,66,58,62,57,-100,88,76,57,30.23,30.06,8,1,8,0.02
2013-9-8,81,70,60,64,60,56,87,73,50,30.21,30.09,6,2,11,0.00
2013-9-9,80,70,62,65,61,57,86,75,58,30.17,30.02,10,2,12,0.00
2013-9-10,86,72,62,68,63,57,86,73,52,30.05,29.89,8,2,8,0.00
2013-9-11,93,77,65,67,63,60,84,65,40,30.04,29.93,6,1,7,0.00
2013-9-12,79,69,61,66,61,56,85,75,61,30.14,30.00,3,0,5,0.00
2013-9-13,71,64,61,62,58,56,86,82,73,30.11,29.96,6,1,8,0.00
2013-9-14,76,67,61,65,59,-100,87,79,67,29.99,29.81,4,0,6,0.00
2013-9-15,70,66,61,64,60,56,87,83,79,30.01,29.83,1,0,1,0.06
2013-9-16,71,64,60,62,58,55,86,81,67,30.11,30.01,4,0,4,0.02
2013-9-17,69,62,56,58,53,49,86,74,56,30.13,30.00,4,0,4,0.02
2013-9-18,62,57,55,51,50,49,84,77,64,30.18,30.13,1,0,1,0.00
2013-9-19,76,61,51,57,51,47,87,71,44,30.13,29.88,3,0,3,0.00
2013-9-20,77,62,52,60,53,47,85,72,55,29.90,29.77,2,0,3,0.00
2013-9-21,69,60,56,61,54,-100,87,81,72,29.90,29.80,1,0,1,0.38
2013-9-22,63,58,56,57,54,52,87,85,73,29.98,29.79,4,1,7,0.24
2013-9-23,66,58,54,59,54,50,88,86,75,30.13,29.98,4,0,4,0.38
2013-9-24,62,55,51,57,51,48,88,87,81,30.12,29.99,2,0,2,0.26
2013-9-25,61,54,48,51,48,44,88,81,66,30.17,29.99,3,0,6,0.08
2013-9-26,63,54,46,54,48,43,88,81,62,30.29,30.16,4,0,4,0.00
2013-9-27,57,53,48,53,49,44,88,86,85,30.30,30.05,3,0,3,0.16
2013-9-28,66,58,53,61,53,-100,88,86,83,30.05,29.60,6,2,11,1.16
2013-9-29,56,54,52,52,50,48,88,87,87,29.81,29.49,6,1,7,1.61
2013-9-30,58,53,49,54,50,46,88,88,83,30.12,29.71,4,1,6,0.85
2013-10-1,54,49,46,49,45,43,89,87,84,30.32,30.26,0,0,0,0.28
2013-10-2,55,47,44,52,44,41,89,88,87,30.32,30.23,0,0,1,0.20
2013-10-3,58,48,45,50,44,42,89,86,74,30.56,30.32,0,0,0,0.02
2013-10-4,63,51,44,52,46,41,88,83,68,30.60,30.45,1,0,3,0.00
2013-10-5,67,54,45,51,47,42,88,77,54,30.47,30.26,4,0,4,0.00
2013-10-6,69,55,44,58,47,40,88,76,52,30.26,30.07,3,0,3,0.00
2013-10-7,63,57,53,53,49,45,87,76,60,30.25,30.10,4,0,5,0.02
2013-10-8,57,52,44,51,47,40,87,82,68,30.27,30.11,3,0,7,0.04
2013-10-9,60,49,43,48,43,39,88,81,60,30.26,30.10,4,0,6,0.02
2013-10-10,64,53,46,53,47,42,87,81,63,30.22,30.10,4,0,4,0.00
2013-10-11,59,54,50,52,47,44,87,79,65,30.28,30.22,2,0,3,0.00
2013-10-12,58,51,46,51,45,-100,87,82,72,30.31,30.20,3,0,3,0.02
2013-10-13,60,51,45,51,45,42,88,81,65,30.44,30.31,8,1,8,0.02
2013-10-14,65,52,42,50,45,39,88,78,54,30.51,30.42,4,1,8,0.00
2013-10-15,66,53,44,49,44,40,88,73,49,30.48,30.26,4,0,6,0.00
2013-10-16,62,52,45,50,45,41,87,78,61,30.30,30.23,3,0,4,0.00
2013-10-17,62,52,48,52,47,44,88,82,69,30.38,30.28,3,0,4,0.00
2013-10-18,67,54,46,51,47,43,88,76,53,30.33,30.20,3,0,5,0.00
2013-10-19,63,52,44,51,45,-100,88,80,62,30.29,30.21,1,0,2,0.00
2013-10-20,60,51,47,51,46,43,88,84,72,30.30,30.19,3,0,4,0.00
2013-10-21,68,54,46,55,48,43,88,80,61,30.24,30.11,5,1,6,0.00
2013-10-22,70,56,47,55,49,44,88,78,56,30.19,30.07,3,0,4,0.00
2013-10-23,59,52,48,52,48,45,88,85,77,30.14,30.08,1,0,3,0.00
2013-10-24,63,54,49,55,49,45,88,84,74,30.18,30.10,3,0,3,0.00
2013-10-25,57,54,49,51,49,46,88,84,78,30.40,30.31,4,0,4,0.00
2013-10-26,56,52,47,49,46,-100,87,82,76,30.43,30.30,6,0,9,0.00
2013-10-27,57,51,48,49,46,43,87,81,70,30.32,29.96,13,2,18,0.06
2013-10-28,51,45,41,44,37,-100,88,78,59,30.07,29.98,3,0,4,0.04
2013-10-29,55,44,37,40,36,33,88,75,50,30.20,30.06,4,0,4,0.00
2013-10-30,57,45,34,45,38,31,88,78,62,30.34,30.19,3,0,3,0.00
2013-10-31,64,54,50,54,49,44,85,81,69,30.41,30.29,2,0,3,0.02
2013-11-1,60,54,49,52,49,45,88,84,75,30.42,30.05,2,0,4,0.10
2013-11-2,58,51,44,50,44,-100,88,80,59,30.19,29.86,9,1,9,0.61
2013-11-3,55,47,42,47,42,38,87,83,71,30.29,30.18,4,0,4,0.06
2013-11-4,50,47,45,47,44,41,89,88,87,30.31,30.24,2,0,2,0.34
2013-11-5,54,51,47,51,48,44,89,88,88,30.38,30.22,3,0,4,0.20
2013-11-6,54,51,49,51,48,46,89,88,88,30.43,30.22,1,0,1,0.34
2013-11-7,55,51,48,52,48,45,89,88,86,30.25,30.00,5,1,10,0.57
2013-11-8,55,49,46,50,46,43,89,87,82,30.33,30.25,1,0,1,0.04
2013-11-9,50,46,44,46,42,-100,89,87,83,30.27,30.18,3,0,3,0.02
2013-11-10,56,49,45,50,45,42,89,86,77,30.24,30.18,3,0,4,0.00
2013-11-11,58,50,42,50,44,39,89,80,66,30.30,30.16,3,0,4,0.00
2013-11-12,59,53,49,55,49,44,88,86,75,30.54,30.21,1,0,3,0.20
2013-11-13,55,50,45,51,46,42,89,87,79,30.61,30.44,3,0,3,0.02
2013-11-14,54,48,42,49,45,39,89,87,81,30.44,30.24,1,0,1,0.02
2013-11-15,50,46,41,46,42,38,89,88,84,30.24,29.66,6,1,7,0.08
2013-11-16,50,46,44,46,41,-100,89,85,80,30.00,29.66,8,0,10,0.14
2013-11-17,55,50,45,49,45,41,88,84,77,30.12,29.99,6,1,6,0.02
2013-11-18,54,51,50,49,46,44,88,83,77,30.11,29.83,5,1,8,0.30
2013-11-19,52,48,38,49,43,30,89,82,71,30.17,29.84,9,2,10,0.40
2013-11-20,45,37,32,36,31,28,88,79,67,30.57,30.17,8,2,11,0.02
2013-11-21,43,33,29,30,28,26,88,80,52,30.74,30.57,5,1,8,0.00
2013-11-22,38,32,29,26,24,22,87,73,55,30.74,30.55,1,0,4,0.00
2013-11-23,47,38,36,25,22,-100,59,54,40,30.55,30.32,6,0,6,0.00
2013-11-28,49,41,36,37,33,30,79,72,63,30.35,30.22,0,0,0,0.00
2013-11-29,46,39,33,38,34,29,86,81,73,30.50,30.34,1,0,3,0.00
2013-11-30,53,46,41,46,40,-100,87,82,75,30.53,30.35,1,0,1,0.06
2013-12-1,56,53,48,52,49,44,88,87,86,30.35,30.05,7,2,9,0.73
2013-12-2,51,43,35,48,38,31,88,83,71,30.19,30.04,13,1,14,0.53
2013-12-3,41,36,29,35,30,22,89,80,62,30.44,30.19,4,0,4,0.02
2013-12-4,35,28,24,27,22,17,88,78,59,30.49,30.42,2,0,3,0.00
2013-12-5,28,24,20,23,18,16,85,76,62,30.46,30.31,1,0,1,0.00
2013-12-6,32,27,25,21,17,12,80,65,59,30.33,30.13,4,1,4,0.00
2013-12-7,28,22,16,13,7,-100,63,54,44,30.59,30.28,4,0,6,0.00
2013-12-8,28,20,13,16,11,6,77,69,59,30.76,30.59,1,0,1,0.00
2013-12-9,31,24,16,22,17,11,83,74,65,30.78,30.68,1,0,1,0.00
2013-12-10,36,31,27,29,25,22,86,78,73,30.71,30.55,2,0,2,0.00
2013-12-11,39,31,26,34,28,22,89,86,79,30.55,30.35,2,0,2,0.00
2013-12-12,38,32,25,35,29,22,89,87,82,30.37,30.27,3,0,3,0.10
2013-12-13,46,42,37,43,39,34,89,88,87,30.57,30.36,2,0,2,0.04
2013-12-14,44,42,40,41,38,-100,89,89,88,30.60,30.54,3,0,3,0.00
2013-12-15,48,43,40,44,40,37,89,88,86,30.63,30.56,3,0,3,0.00
2013-12-16,44,42,40,41,39,37,89,89,88,30.63,30.40,4,0,5,0.02
2013-12-17,42,40,39,39,37,36,89,89,88,30.41,30.32,1,0,3,0.02
2013-12-18,45,40,32,42,37,29,90,88,86,30.33,30.18,2,0,4,0.04
2013-12-19,37,32,29,34,29,26,90,89,88,30.48,30.26,4,0,5,0.04
2013-12-20,45,38,34,42,35,31,89,89,89,30.37,30.01,5,1,7,0.06
2013-12-21,53,46,43,50,42,-100,89,87,83,30.37,30.06,3,0,3,0.08
2013-12-22,54,49,46,50,45,43,89,88,86,30.49,30.36,3,0,3,0.06
2013-12-23,53,47,38,50,44,34,89,88,84,30.68,30.43,8,0,9,0.18
2013-12-24,39,37,32,36,34,29,90,89,88,30.76,30.63,4,0,4,0.02
2013-12-25,43,38,36,39,35,33,90,89,85,30.64,30.51,2,0,2,0.02
2013-12-26,42,37,33,38,34,30,90,88,84,30.54,30.37,3,0,4,0.00
2013-12-27,41,37,32,37,34,29,90,89,86,30.54,30.35,1,0,1,0.00
2013-12-28,45,41,38,40,36,-100,89,86,81,30.64,30.54,1,0,4,0.00
2013-12-29,43,39,37,39,36,34,89,88,85,30.62,30.44,3,0,3,0.00
2013-12-30,44,39,36,40,36,33,90,88,86,30.45,30.33,3,0,3,0.00
2013-12-31,49,43,39,45,39,36,90,88,83,30.49,30.38,2,0,3,0.00
2014-1-1,45,41,35,42,38,32,90,89,88,30.52,30.39,3,0,4,0.00
2014-1-2,47,41,35,44,38,32,90,88,85,30.41,30.17,1,0,2,0.06